Theta_e
347 353 358 359 359 357 360 359 362 363 363 363 364 364 362 361 361 361 362 363 362 362 362 363 362 362 362 358 360 361 361 361 361 361 361 360 359 359 358 359 359 352 357
349 354 360 361 359 357 358 359 361 362 363 363 363 362 362 361 362 362 362 363 363 362 363 362 361 362 361 357 358 361 361 361 361 361 362 358 359 360 358 356 363 357 358
350 354 359 362 360 358 358 360 361 362 362 361 362 363 362 361 361 362 363 362 361 358 361 362 362 361 362 361 359 360 361 360 361 358 361 352 357 358 357 360 359 358 359
351 353 356 361 362 357 359 362 361 362 362 361 360 362 362 361 361 361 362 360 361 363 362 362 362 362 360 360 361 360 360 360 360 358 355 353 354 359 358 359 359 360 359
352 354 359 361 360 358 361 361 362 362 361 360 360 362 360 361 362 363 363 362 362 362 362 362 363 361 361 362 362 360 358 361 358 357 353 354 354 358 359 359 359 359 358
352 355 359 361 359 358 361 361 362 361 362 361 362 362 362 362 361 360 362 361 362 362 362 362 362 361 360 360 360 360 360 355 356 353 353 352 354 359 357 357 358 358 359
353 356 358 361 358 358 361 361 360 361 361 361 362 362 363 363 362 362 362 362 361 362 362 360 360 359 358 360 360 360 359 356 355 354 354 357 359 360 359 355 358 359 358
351 354 356 360 361 362 362 359 362 361 360 361 362 362 361 361 362 362 362 362 362 361 359 360 359 359 358 360 361 360 358 355 355 354 354 356 359 359 353 349 355 359 358
352 353 353 356 361 361 361 362 363 363 362 363 362 363 362 362 362 362 361 361 362 361 360 360 359 361 360 363 362 358 357 354 355 354 351 356 358 358 354 355 355 355 354
352 352 356 360 362 359 357 362 363 363 364 363 360 361 362 362 362 361 362 361 362 361 361 361 359 359 361 361 360 361 358 354 354 353 355 354 360 359 359 358 357 358 358
350 352 353 355 358 360 359 362 364 363 363 363 362 361 363 366 363 360 361 361 361 362 360 359 357 356 360 361 358 358 358 356 358 353 353 359 360 358 358 358 359 359 358
346 350 353 354 353 355 352 359 365 360 363 362 363 363 359 362 363 357 360 362 362 361 360 358 355 358 361 357 358 358 355 357 355 354 353 357 355 358 359 358 359 359 358
345 349 352 354 357 354 353 355 357 359 358 360 364 363 362 361 361 359 360 366 364 361 360 358 359 356 355 359 356 355 357 357 358 359 358 358 358 357 356 358 358 358 358
345 348 350 355 357 356 356 355 357 355 358 356 361 363 362 358 359 361 359 362 360 358 358 356 354 357 355 356 354 351 354 356 356 357 351 356 357 357 358 358 358 359 358
342 348 349 355 359 359 360 358 355 353 355 357 359 361 363 360 361 362 359 360 364 362 357 355 360 359 360 358 356 357 351 355 358 357 352 350 354 356 355 356 357 357 357
343 344 349 353 358 358 358 360 355 353 352 358 359 361 363 361 363 359 359 359 362 362 364 363 360 358 359 358 356 357 353 354 356 357 355 351 353 353 353 354 356 357 357
345 346 347 352 354 356 358 359 355 353 350 354 359 364 364 369 368 365 359 358 360 363 362 361 362 356 357 354 352 355 354 357 354 353 352 353 353 351 353 353 352 355 356
349 349 349 348 351 353 355 357 355 355 357 357 359 360 364 367 368 367 360 358 362 361 361 369 367 367 356 356 348 350 353 355 359 358 357 354 353 350 353 350 350 352 353
353 354 353 353 352 354 359 358 359 359 357 359 360 360 364 365 367 372 368 360 364 359 358 358 358 369 364 356 357 350 354 361 362 359 357 355 353 351 353 353 354 351 353
354 356 358 355 357 359 358 360 359 359 360 361 361 362 365 364 366 365 361 363 362 367 367 356 363 361 367 359 355 355 358 359 360 369 360 356 354 355 350 354 349 350 352
354 355 358 359 360 359 357 355 355 354 357 359 362 367 369 367 367 368 362 363 363 360 361 362 359 361 358 362 356 353 352 356 357 357 358 358 355 353 354 354 355 349 354
350 355 358 360 362 362 358 359 358 357 356 358 361 365 369 369 369 367 368 366 366 357 361 362 359 355 354 360 352 351 349 350 351 355 360 356 356 356 356 353 354 354 351
348 353 356 360 362 363 363 361 361 361 360 357 358 359 363 368 369 369 369 373 369 364 356 365 361 359 353 355 362 354 341 344 348 354 354 359 358 356 358 357 356 358 356
348 352 356 360 362 363 365 360 362 354 351 353 355 355 358 366 367 367 368 369 369 364 363 362 362 363 361 353 354 356 359 355 342 338 350 353 356 355 358 364 356 353 362
349 350 355 360 363 364 364 365 359 359 355 356 356 360 363 363 365 364 367 369 369 365 366 366 369 362 368 363 364 355 359 357 355 348 339 344 350 353 355 357 358 356 356
348 350 353 358 362 364 363 364 363 362 360 355 356 354 355 354 357 365 366 368 370 368 369 373 369 368 370 362 360 365 359 355 357 351 344 345 348 351 354 356 358 358 359
Wind_Speed
10 14 7 8 8 9 8 8 9 9 11 12 13 11 9 8 8 9 8 11 10 11 11 13 13 13 15 13 12 12 13 14 14 15 15 13 14 13 12 10 14 16 13
14 14 10 10 9 8 8 7 7 8 9 11 10 9 9 8 8 9 9 10 11 11 12 12 13 13 14 14 12 13 12 13 13 14 14 14 12 13 9 5 14 15 13
13 15 13 10 8 7 7 7 8 8 9 8 8 9 9 8 8 9 11 12 12 12 12 12 13 13 12 13 12 11 11 11 12 11 14 11 12 11 10 11 13 12 12
13 14 15 9 9 7 6 6 8 7 7 9 7 7 8 9 9 10 10 11 11 11 12 12 13 12 13 12 10 10 10 11 10 8 10 11 12 10 11 11 12 11 13
11 11 16 8 8 7 5 5 7 7 8 9 8 9 10 9 11 11 10 11 10 11 11 12 12 11 12 12 10 10 9 9 4 8 7 6 11 10 10 10 11 11 10
11 12 13 9 9 7 6 6 6 6 9 10 8 11 10 10 9 11 11 10 10 11 10 10 10 9 9 7 7 8 9 7 9 7 7 3 10 10 9 6 8 9 10
11 13 13 9 9 8 8 5 6 8 7 8 9 8 11 11 11 9 11 10 10 9 10 8 8 6 5 6 7 9 8 4 4 5 7 7 11 8 8 8 8 8 8
10 11 11 9 8 8 8 6 8 9 10 9 8 9 10 10 10 10 10 10 9 9 8 7 6 5 2 6 8 9 8 5 5 4 5 7 9 8 8 7 8 8 8
10 10 10 11 9 8 8 7 8 11 10 9 9 8 10 8 10 9 9 8 8 10 7 6 6 8 8 10 10 7 6 1 5 5 3 6 7 6 9 8 9 8 8
10 9 8 9 7 8 10 8 9 8 8 9 9 8 8 8 8 8 8 7 9 8 6 6 5 6 8 8 7 7 7 6 5 6 3 8 5 8 8 7 8 8 8
7 8 9 9 8 6 5 9 9 8 8 9 10 6 7 5 5 10 9 7 6 7 6 5 4 3 5 6 4 5 5 4 1 2 3 7 5 7 7 8 7 7 6
10 8 8 6 8 8 5 5 5 6 6 5 4 5 4 7 3 7 6 5 6 5 5 4 3 2 9 6 3 6 3 3 1 2 5 4 2 4 6 8 7 8 7
8 7 8 8 5 7 5 5 4 4 5 5 5 4 5 4 4 3 5 2 1 4 3 4 7 2 4 3 4 3 3 3 3 2 2 2 3 5 5 5 7 7 8
9 8 10 9 7 6 6 5 4 3 4 4 5 5 3 4 3 2 3 3 4 6 5 5 4 7 4 1 2 1 7 4 6 3 4 8 7 5 5 5 6 7 7
9 9 9 8 7 6 5 4 4 3 5 5 5 5 2 2 1 2 3 3 1 3 5 2 2 4 3 5 4 5 4 7 2 4 5 10 8 8 5 4 5 6 6
8 9 10 9 8 8 6 5 4 4 4 3 4 5 3 4 2 2 3 3 2 3 1 3 3 2 2 1 4 6 6 6 2 6 6 8 14 11 5 5 6 7 7
9 9 10 9 10 9 7 6 5 5 6 5 5 5 6 5 4 4 3 4 3 3 4 5 5 2 3 1 4 4 5 9 5 8 8 8 8 14 14 11 5 8 8
7 8 8 8 10 10 8 7 5 5 4 4 4 4 6 6 5 4 4 4 2 4 4 5 4 5 5 4 4 4 7 8 10 10 10 9 10 8 12 17 14 10 8
8 8 9 9 8 8 7 6 6 5 5 4 5 5 6 7 7 5 6 4 4 5 5 5 5 3 4 4 6 5 7 7 6 8 8 10 6 9 7 13 15 11 11
10 10 10 9 9 8 6 6 5 5 5 6 6 6 6 7 7 6 5 5 4 5 6 6 7 7 5 4 7 5 7 8 8 6 8 8 9 11 9 6 6 9 16
12 13 13 12 11 8 7 7 6 7 6 6 6 8 8 8 7 7 6 5 5 5 6 7 6 6 7 5 6 8 4 4 5 4 5 6 9 9 10 12 8 5 5
14 14 14 14 14 12 9 7 6 4 6 6 5 5 8 10 8 8 8 6 4 5 6 7 6 6 7 3 4 8 5 2 5 3 2 5 8 7 9 11 12 13 12
15 16 15 15 14 13 11 7 6 6 6 6 7 7 8 9 9 9 8 6 6 6 7 3 6 6 6 5 5 4 5 1 6 5 5 1 3 6 6 10 12 12 12
14 13 15 15 16 14 13 10 10 8 7 5 6 5 5 6 8 9 8 8 7 6 7 6 6 6 6 7 4 5 6 7 5 6 3 5 4 6 8 7 8 8 10
13 13 13 15 15 14 14 13 11 11 8 7 6 6 7 7 8 9 8 8 8 7 8 9 8 8 7 7 6 6 7 6 8 6 8 6 6 8 6 5 8 9 11
13 13 13 15 14 15 15 14 14 11 10 7 7 7 6 7 7 8 8 8 8 9 9 8 10 10 8 9 8 7 7 5 5 5 6 8 8 8 6 6 7 5 11
Wind_Direction
148 122 139 130 117 94 89 99 95 100 111 116 125 130 126 129 119 112 111 110 105 106 106 103 102 108 101 103 106 111 103 107 109 112 115 115 115 111 121 134 164 109 119
138 129 146 140 122 99 92 92 101 106 114 124 131 135 131 123 116 110 109 108 109 102 99 102 102 106 104 102 106 104 111 111 119 120 118 112 118 119 118 115 80 113 129
134 128 152 138 131 103 99 102 110 107 103 124 135 127 124 117 124 113 103 106 107 103 105 103 105 103 98 103 110 109 111 114 113 143 160 130 115 123 120 97 105 121 118
134 143 137 137 121 113 115 106 104 107 119 124 119 133 121 125 142 110 111 111 111 101 103 110 107 99 99 100 109 102 117 122 136 183 210 113 113 118 127 121 122 120 123
137 135 108 128 126 118 109 109 118 122 119 115 117 108 112 138 112 109 110 97 109 107 108 111 110 112 115 101 112 115 110 108 169 230 89 104 118 112 116 120 129 137 159
141 119 120 135 131 125 107 116 108 95 115 130 131 117 122 104 113 116 105 104 113 106 104 109 111 116 125 120 109 123 118 130 216 79 86 118 87 118 127 110 107 113 121
137 122 131 134 129 136 112 98 120 105 113 113 120 104 100 114 118 109 118 115 110 108 111 97 100 105 122 141 120 125 124 162 118 131 131 111 97 131 135 133 131 134 132
121 110 126 130 138 119 95 104 108 102 108 111 114 108 104 111 113 127 121 112 115 108 107 88 70 46 63 154 142 130 130 170 107 72 98 94 108 129 122 133 147 138 136
115 129 153 145 137 122 105 90 103 108 113 112 110 114 104 108 114 102 109 122 121 116 110 98 72 61 75 108 125 126 120 5 109 97 122 127 132 139 142 144 150 156 155
144 138 132 153 128 157 143 103 109 110 107 113 109 108 113 116 114 116 130 119 113 120 117 88 72 65 84 105 131 143 138 188 77 150 150 91 144 152 154 165 165 163 160
143 162 157 156 153 135 130 121 139 128 124 136 136 106 162 94 125 154 94 112 102 121 114 111 96 72 107 90 89 133 183 47 117 43 82 124 187 161 159 169 166 173 174
158 157 145 164 160 151 151 145 120 150 127 106 107 131 152 109 103 72 102 115 118 116 135 136 132 121 244 117 70 150 197 80 254 56 73 116 258 196 170 162 164 171 177
141 160 160 159 189 160 145 178 167 154 145 133 138 174 100 158 150 156 110 96 143 173 88 182 161 182 297 9 89 331 171 160 87 73 71 261 234 208 191 187 180 177 172
167 169 165 156 164 188 158 190 153 160 180 165 131 169 146 197 122 148 145 148 199 130 186 219 158 113 191 196 104 130 301 302 154 126 12 308 254 224 208 196 190 187 181
174 168 166 155 165 166 182 163 165 173 194 156 165 149 159 188 109 190 145 209 249 160 142 150 211 88 196 188 192 243 248 273 150 160 164 225 269 267 215 209 213 206 201
178 171 164 176 170 184 187 184 183 184 178 170 158 156 187 263 180 185 194 210 198 222 184 157 164 259 182 224 178 213 238 259 179 196 187 187 219 222 226 235 224 218 210
177 172 178 184 179 188 194 195 206 199 177 190 191 180 193 217 205 281 208 239 231 190 253 226 211 220 276 155 262 174 233 236 215 225 202 200 216 208 187 236 263 250 217
182 175 187 189 189 180 193 187 213 203 206 196 196 195 205 222 241 236 222 234 254 267 254 209 267 248 213 206 227 234 237 248 195 222 210 204 206 220 202 223 231 245 230
194 182 189 195 195 181 184 199 212 193 215 213 217 221 193 229 239 245 248 252 240 272 273 281 284 275 247 257 227 255 288 274 264 218 233 220 177 202 224 213 224 234 226
199 196 193 199 198 194 185 209 217 220 225 213 245 232 215 227 230 246 250 257 258 296 335 292 315 303 283 263 299 281 237 261 268 223 217 210 219 212 231 207 186 224 225
203 203 199 196 197 200 201 206 214 223 221 235 233 237 243 233 232 232 254 244 231 256 270 277 282 288 295 324 289 298 285 253 259 254 228 197 214 219 211 220 209 215 207
207 208 207 206 196 200 202 213 233 243 242 251 244 247 228 233 224 239 250 265 260 269 263 279 276 277 296 285 299 285 295 31 178 247 171 206 222 206 215 222 221 219 226
206 203 207 206 203 205 218 205 212 242 249 238 231 237 219 225 226 230 246 251 264 269 267 243 245 263 287 283 173 283 299 231 306 128 216 299 192 213 218 227 236 222 214
209 203 203 202 201 199 200 214 221 240 243 231 242 257 264 230 239 238 244 247 248 261 290 265 238 255 260 280 262 218 249 287 306 307 174 211 263 264 223 223 238 239 232
195 201 198 197 201 205 198 214 207 224 236 237 242 251 250 264 243 250 241 246 250 250 250 254 257 252 263 270 302 311 282 269 246 245 290 310 327 294 267 242 238 217 245
198 199 198 193 201 199 202 205 219 228 229 246 236 255 242 241 228 214 239 248 261 269 258 252 256 252 245 250 262 251 248 245 256 241 241 255 280 293 261 271 236 222 235